Location: Lachepaillet
(43.4918°N, 1.4874°W)
Time: 00:40:49
(UTC+00:00)

NOSS 0 Rocket - Pass Details

Date: 15 May 2026
Orbit: 936 x 952 km, 70.0° (Epoch: 9 June)

Event Time Altitude Azimuth Distance (km) Brightness Sun altitude
Rises 23:21:17 0° 334° (NNW) 3,612 8.2 -26.8°
Reaches altitude 10° 23:23:50 10° 336° (NNW) 2,662 7.2 -26.8°
Maximum altitude 23:30:01 79° 63° (ENE) 959 3.9 -27.0°
Enters shadow 23:30:48 68° 125° (SE) 1,009 3.8 -27.0°
